This demonstration page uses our WeatherBlox Daily Observations layout. Learn more.

Left ArrowRight Arrow

Hourly Observations for May 19, 2017

Temp ( °F °C ) Dew Point ( °F °C ) Humidity (%) Winds ( mph kmh ) Pressure ( in mb ) Visibility ( mi km ) Precip ( " mm )
12:52 am 00:52 Mostly Clear 75 23.9 68 20 79 79 SE 14 22 29.78 1008 10 16 0.00 0.00
1:38 am 01:38 Mostly Cloudy with Nearby Thunderstorms 70 21.1 59 15 68 68 W 17 28 29.88 1012 10 16 0.00 0.03
1:46 am 01:46 Mostly Cloudy with Strong Thunderstorms 66 19 61 16 83 83 W 30 48 29.85 1011 2 3 0.02 0.51
1:52 am 01:52 Cloudy with Strong Thunderstorms 63 17.2 60 15.6 90 90 W 25 41 29.87 1011 1 1 0.26 6.60
1:57 am 01:57 Cloudy with Strong Thunderstorms 63 17.2 61 16.1 93 93 W 16 26 29.88 1012 2 2 0.05 1.27
2:04 am 02:04 Cloudy with Strong Thunderstorms 63 17.2 61 16.1 93 93 W 13 20 29.88 1012 3 5 0.13 3.30
2:39 am 02:39 Cloudy with Nearby Thunderstorms 63 17.2 61 16.1 93 93 WSW 12 19 29.91 1013 6 10 0.23 5.84
2:52 am 02:52 Cloudy with Nearby Thunderstorms 63 17.2 61 16.1 93 93 SSW 5 7 29.89 1012 5 8 0.28 7.11
3:11 am 03:11 Cloudy with Thunderstorms 63 17.2 61 16.1 93 93 ESE 5 7 29.88 1012 8 13 0.04 1.02
3:26 am 03:26 Cloudy with Light Rain 63 17.2 61 16.1 93 93 E 9 15 29.85 1011 10 16 0.06 1.52
3:52 am 03:52 Cloudy with Light Rain 63 17.2 61 16.1 93 93 ESE 5 7 29.86 1011 10 16 0.07 1.78
4:19 am 04:19 Cloudy with Light Rain 63 17.2 61 16.1 93 93 NNW 5 7 29.88 1012 10 16 0.01 0.25
4:52 am 04:52 Mostly Cloudy 63 17.2 61 16.1 93 93 Calm 29.85 1011 10 16 0.02 0.51
5:52 am 05:52 Mostly Cloudy 62 16.7 61 16.1 96 96 SW 6 9 29.89 1012 10 16 0.00 0.03
6:52 am 06:52 Cloudy with Light Rain 62 16.7 61 16.1 96 96 SW 7 11 29.92 1013 10 16 0.00 0.03
7:52 am 07:52 Mostly Sunny 64 17.8 62 16.7 93 93 S 6 9 29.91 1013 10 16 0.00 0.03
8:52 am 08:52 Sunny 67 19.4 63 17.2 87 87 SSE 13 20 29.88 1012 10 16 0.00 0.00
9:52 am 09:52 Partly Cloudy 69 20.6 62 16.7 78 78 SSE 13 20 29.91 1013 10 16 0.00 0.00
10:52 am 10:52 Mostly Cloudy 73 22.8 63 17.2 71 71 SE 14 22 29.89 1012 10 16 0.00 0.00
11:52 am 11:52 Mostly Cloudy 75 23.9 63 17.2 66 66 SSE 13 20 29.89 1012 10 16 0.00 0.00
12:52 pm 12:52 Mostly Cloudy 78 25.6 65 18.3 64 64 S 18 30 29.88 1012 10 16 0.00 0.00
1:52 pm 13:52 Mostly Cloudy 77 25 66 18.9 69 69 S 16 26 29.88 1012 10 16 0.00 0.00
2:52 pm 14:52 Mostly Cloudy 77 25 67 19.4 71 71 S 17 28 29.87 1012 10 16 0.00 0.00
3:52 pm 15:52 Cloudy 76 24.4 67 19.4 74 74 S 14 22 29.87 1012 10 16 0.00 0.00
4:20 pm 16:20 Cloudy with Nearby Thunderstorms 75 23.9 67 19.4 76 76 S 12 19 29.85 1011 10 16 0.00 0.00
4:30 pm 16:30 Cloudy with Thunderstorms 69 20.6 61 16.1 76 76 WSW 25 41 29.97 1015 4 6 0.00 0.03
4:32 pm 16:32 Cloudy with Strong Thunderstorms 67 19.4 61 16.1 81 81 WSW 22 35 29.94 1014 2 2 0.00 0.03
4:39 pm 16:39 Cloudy with Strong Thunderstorms 63 17.2 61 16.1 93 93 SW 16 26 29.94 1014 1 1 0.18 4.57
4:47 pm 16:47 Cloudy with Strong Thunderstorms 63 17 63 17 100 100 SSW 3 6 29.91 1013 1 2 0.35 8.89
4:52 pm 16:52 Cloudy with Thunderstorms 64 17.8 62 16.7 93 93 SSE 7 11 29.93 1013 2 3 0.40 10.16
4:55 pm 16:55 Cloudy with Thunderstorms 64 17.8 62 16.7 93 93 SSE 9 15 29.91 1013 3 5 0.00 0.03
5:26 pm 17:26 Mostly Cloudy with Nearby Thunderstorms 64 17.8 62 16.7 93 93 ESE 7 11 29.91 1013 9 14 0.03 0.76
5:45 pm 17:45 Cloudy with Light Rain 64 17.8 62 16.7 93 93 E 12 19 29.85 1011 10 16 0.03 0.76
5:52 pm 17:52 Mostly Cloudy 65 18.3 63 17.2 93 93 E 9 15 29.87 1012 10 16 0.03 0.76
6:52 pm 18:52 Sunny 65 18.3 63 17.2 93 93 ESE 10 17 29.85 1011 10 16 0.00 0.00
7:52 pm 19:52 Sunny 65 18.3 62 16.7 90 90 SE 12 19 29.81 1010 10 16 0.00 0.00
8:52 pm 20:52 Cloudy with Nearby Thunderstorms 66 18.9 62 16.7 87 87 WSW 16 26 29.90 1013 10 16 0.00 0.00
9:00 pm 21:00 Cloudy with Nearby Thunderstorms 66 18.9 62 16.7 87 87 WSW 8 13 29.91 1013 10 16 0.00 0.00
9:07 pm 21:07 Cloudy with Thunderstorms 66 18.9 62 16.7 87 87 W 18 30 29.91 1013 7 11 0.00 0.03
9:16 pm 21:16 Cloudy with Strong Thunderstorms 64 17.8 62 16.7 93 93 VRB 3 6 29.88 1012 2 3 0.15 3.81
9:22 pm 21:22 Cloudy with Strong Thunderstorms 64 17.8 62 16.7 93 93 SE 3 6 29.91 1013 3 5 0.18 4.57
9:52 pm 21:52 Cloudy with Thunderstorms 63 17.2 62 16.7 97 97 SE 6 9 29.85 1011 10 16 0.24 6.10
10:01 pm 22:01 Cloudy with Nearby Thunderstorms 63 17.2 62 16.7 97 97 SSE 8 13 29.85 1011 10 16 0.00 0.03
10:23 pm 22:23 Cloudy 64 17.8 61 16.1 90 90 ESE 13 20 29.85 1011 10 16 0.00 0.03
10:52 pm 22:52 Cloudy with Nearby Thunderstorms 64 17.8 61 16.1 90 90 ESE 12 19 29.86 1011 10 16 0.00 0.03
11:18 pm 23:18 Cloudy with Thunderstorms 64 17.8 60 15.6 87 87 WNW 18 30 29.88 1012 10 16 0.00 0.03
11:36 pm 23:36 Cloudy with Strong Thunderstorms 63 17.2 60 15.6 90 90 W 26 43 29.91 1013 2 3 0.04 1.02
11:50 pm 23:50 Cloudy with Strong Thunderstorms 63 17 61 16 94 94 N 10 17 29.91 1013 3 5 0.35 8.89
11:52 pm 23:52 Cloudy with Strong Thunderstorms 63 17.2 61 16.1 93 93 NNW 12 19 29.89 1012 3 5 0.37 9.40

Powered by AerisWeather